User: anonymous
Location: Columbia
(38.9520°N, 92.3340°W)
Time: 13:30:39
(UTC-05:00)
Language:

FENGYUN 3A - Orbit

View from above orbital plane
View from above orbital plane
View from above satellite
View from above satellite

Ground track
Ground track

The orbit data is extracted from the following two-line orbital elements,

1 32958U 08026A   14110.18540743  .00000162  00000-0  96847-4 0  9090
2 32958 098.5611 170.9635 0010215 028.7425 331.4315 14.19438162305611
Epoch (UTC): 20 April 2014 04:26:59
Eccentricity: 0.0010215
inclination: 98.5611°
perigee height: 820 km
apogee height: 834 km
right ascension of ascending node: 170.9635°
argument of perigee: 28.7425°
revolutions per day: 14.19438162
mean anomaly at epoch: 331.4315°
orbit number at epoch: 30561

The dashed part of the orbit path shows where the satellite is in the earth's shadow,  

DLR